Weather History for LIVC - November, 2012

Change the Weather History Date:

Thursday, November 15, 2012

  Actual Average Record
Temperature  
Mean Temperature 34 °F -  
Max Temperature 37 °F 33 °F 42 °F (2011)
Min Temperature 32 °F 25 °F 14 °F (2001)
Degree Days  
Heating Degree Days 30    
Moisture  
Dew Point -3 °F    
Average Humidity 21    
Maximum Humidity 48    
Minimum Humidity 4    
Precipitation  
Precipitation 0.00 in 0.09 in - ()
Sea Level Pressure  
Sea Level Pressure 30.14 in    
Wind  
Wind Speed 20 mph ()    
Max Wind Speed 30 mph    
Max Gust Speed -    
Visibility 19.0 miles    
Events      
Averages and records for this station are not official NWS values.
T = Trace of Precipitation, MM = Missing Value Source: Averaged Metar Reports

Daily Weather History Graph

Daily Weather History Graph

Search for Another Location

Airport or City:

Trip Planner

Search our weather history database for the weather conditions in past years. The results will help you decide how hot, cold, wet, or windy it might be!

Date:

Astronomy

Nov. 15, 2012 Rise Set
Actual Time 7:12 AM CET 4:50 PM CET
Civil Twilight 6:41 AM CET 5:21 PM CET
Nautical Twilight 6:06 AM CET 5:56 PM CET
Astronomical Twilight 5:32 AM CET 6:30 PM CET
Moon 8:53 AM CET (11/15) 6:20 PM CET (11/15)
Length of Visible Light 10h 39m
Length of Day
9h 37m
Waxing Crescent, 4% of the Moon is Illuminated
Nov 15
Waxing Crescent
Nov 20
First Quarter
Nov 28
Full
Dec 6
Last Quarter
Dec 13
New

Hourly Weather History & Observations

Time (CET) Temp. Windchill Dew Point Humidity Pressure Visibility Wind Dir Wind Speed Gust Speed Precip Events Conditions
12:55 AM 32.0 °F 19.2 °F 14.0 °F 48% 30.21 in - NE 23.0 mph - N/A   Clear
1:00 AM 33 °F - 14 °F 32%  in 19 mi NE 23.0 mph - -   Partly Cloudy
1:55 AM 32.0 °F 18.9 °F 14.0 °F 48% 30.21 in - NE 24.2 mph - N/A   Clear
2:55 AM 33.8 °F 21.9 °F 10.4 °F 38% 30.21 in - NE 21.9 mph - N/A   Clear
3:55 AM 33.8 °F 22.2 °F 1.4 °F 25% 30.18 in - NE 20.7 mph - N/A   Clear
4:55 AM 33.8 °F 20.8 °F 1.4 °F 25% 30.18 in - NE 26.5 mph - N/A   Clear
5:55 AM 33.8 °F 20.3 °F 1.4 °F 25% 30.15 in - NE 28.8 mph - N/A   Clear
6:55 AM 33.8 °F 20.3 °F -0.4 °F 23% 30.18 in - NE 28.8 mph - N/A   Clear
7:55 AM 33.8 °F 20.1 °F 5.0 °F 30% 30.15 in - NE 29.9 mph - N/A   Clear
8:55 AM 33.8 °F 20.3 °F -4.0 °F 20% 30.15 in - NE 28.8 mph - N/A   Clear
9:55 AM 35.6 °F 24.0 °F -4.0 °F 18% 30.15 in - NE 23.0 mph - N/A   Clear
10:55 AM 35.6 °F 25.2 °F -5.8 °F 17% 30.15 in - NE 18.4 mph - N/A   Clear
11:55 AM 35.6 °F 26.6 °F -20.2 °F 8% 30.15 in - NE 13.8 mph - N/A   Clear
12:55 PM 37.4 °F 29.8 °F -11.2 °F 12% 30.15 in - NE 11.5 mph - N/A   Clear
1:00 PM 37 °F - -11 °F 4%  in 31 mi NE 11.5 mph - -   Partly Cloudy
1:55 PM 37.4 °F 27.8 °F -5.8 °F 16% 30.12 in - NE 17.3 mph - N/A   Clear
2:55 PM 37.4 °F 27.2 °F -2.2 °F 19% 30.12 in - NE 19.6 mph - N/A   Clear
3:55 PM 35.6 °F 23.0 °F 1.4 °F 24% 30.09 in - NE 27.6 mph - N/A   Clear
4:55 PM 33.8 °F 20.8 °F -4.0 °F 20% 30.09 in - NE 26.5 mph - N/A   Clear
5:55 PM 33.8 °F 21.0 °F -7.6 °F 17% 30.09 in - NE 25.3 mph - N/A   Clear
6:55 PM 37.4 °F 26.4 °F -14.8 °F 10% 30.09 in - NE 23.0 mph - N/A   Clear
7:00 PM 37 °F - -15 °F 4%  in 47 mi NE 23.0 mph - -  
8:55 PM 35.6 °F 24.5 °F -11.2 °F 13% 30.12 in - NE 20.7 mph - N/A   Clear
9:55 PM 35.6 °F 24.5 °F -9.4 °F 14% 30.12 in - NE 20.7 mph - N/A   Clear
10:55 PM 35.6 °F 25.5 °F -11.2 °F 13% 30.12 in - NE 17.3 mph - N/A   Clear
11:55 PM 35.6 °F 25.9 °F -9.4 °F 14% 30.12 in - NE 16.1 mph - N/A   Clear